Cortez, CO

6:49 PM MDT on May 26, 2017 (GMT -0600)
Cortez Municipal

Weather History for KCEZ - September, 2013

Change the Weather History Date:

Wednesday, September 25, 2013

  Actual Average Record
Temperature  
Mean Temperature 61 °F 57 °F  
Max Temperature 79 °F 74 °F 85 °F (2014)
Min Temperature 43 °F 39 °F 25 °F (2000)
Degree Days  
Heating Degree Days 4 8  
Month to date heating degree days 50 113  
Since 1 July heating degree days 50 125  
Cooling Degree Days 0 0  
Month to date cooling degree days 62 16  
Year to date cooling degree days 667 425  
Growing Degree Days 11 (Base 50)    
Moisture  
Dew Point 33 °F    
Average Humidity 46    
Maximum Humidity 76    
Minimum Humidity 16    
Precipitation  
Precipitation 0.00 in 0.06 in 0.04 in (2012)
Month to date precipitation 3.10 1.51  
Year to date precipitation 11.22 9.95  
Sea Level Pressure  
Sea Level Pressure 29.70 in    
Wind  
Wind Speed 12 mph (SSW)    
Max Wind Speed 30 mph    
Max Gust Speed 37 mph    
Visibility 10 miles    
Events      
T = Trace of Precipitation, MM = Missing Value Source: NWS Daily Summary

Daily Weather History Graph

Daily Weather History Graph

Search for Another Location

Airport or City:

Trip Planner

Search our weather history database for the weather conditions in past years. The results will help you decide how hot, cold, wet, or windy it might be!

Date:

Astronomy

Sep. 25, 2013 Rise Set
Actual Time 7:05 AM MDT 7:06 PM MDT
Civil Twilight 6:39 AM MDT 7:32 PM MDT
Nautical Twilight 6:08 AM MDT 8:02 PM MDT
Astronomical Twilight 5:38 AM MDT 8:33 PM MDT
Moon 11:22 PM MDT (9/25) 1:06 PM MDT (9/25)
Length of Visible Light 12h 53m
Length of Day
12h 01m
Waning Gibbous, 63% of the Moon is Illuminated
Sep 25
Waning Gibbous
Sep 26
Last Quarter
Oct 4
New
Oct 11
First Quarter
Oct 18
Full

Hourly Weather History & Observations

Time (MDT) Temp. Windchill Dew Point Humidity Pressure Visibility Wind Dir Wind Speed Gust Speed Precip Events Conditions
12:53 AM 45.0 °F 42.6 °F 37.9 °F 76% 29.86 in 10.0 mi WSW 4.6 mph - N/A   Clear
1:53 AM 46.0 °F - 37.9 °F 73% 29.86 in 10.0 mi Calm Calm - N/A   Clear
2:53 AM 45.0 °F 42.6 °F 37.0 °F 74% 29.84 in 10.0 mi NE 4.6 mph - N/A   Clear
3:53 AM 46.9 °F - 36.0 °F 66% 29.81 in 10.0 mi ENE 5.8 mph - N/A   Clear
4:53 AM 45.0 °F - 36.0 °F 71% 29.81 in 10.0 mi Calm Calm - N/A   Clear
5:53 AM 44.1 °F 41.5 °F 36.0 °F 73% 29.81 in 10.0 mi Variable 4.6 mph - N/A   Clear
6:53 AM 46.0 °F 43.9 °F 35.1 °F 66% 29.81 in 10.0 mi WNW 4.6 mph - N/A   Clear
7:53 AM 52.0 °F - 36.0 °F 54% 29.83 in 10.0 mi South 3.5 mph - N/A   Clear
8:53 AM 62.1 °F - 35.1 °F 37% 29.79 in 10.0 mi SSE 11.5 mph 18.4 mph N/A   Clear
9:53 AM 66.0 °F - 35.1 °F 32% 29.80 in 10.0 mi South 15.0 mph 26.5 mph N/A   Clear
10:53 AM 70.0 °F - 35.1 °F 28% 29.76 in 10.0 mi South 21.9 mph 29.9 mph N/A   Clear
11:53 AM 73.9 °F - 36.0 °F 25% 29.71 in 10.0 mi South 20.7 mph 28.8 mph N/A   Clear
12:53 PM 75.0 °F - 34.0 °F 22% 29.68 in 10.0 mi SSE 16.1 mph 32.2 mph N/A   Clear
1:53 PM 77.0 °F - 28.0 °F 17% 29.63 in 10.0 mi SSW 26.5 mph 33.4 mph N/A   Clear
2:53 PM 78.1 °F - 30.9 °F 18% 29.61 in 10.0 mi South 21.9 mph 31.1 mph N/A   Clear
3:53 PM 78.1 °F - 33.1 °F 19% 29.57 in 10.0 mi SSW 20.7 mph 33.4 mph N/A   Clear
4:53 PM 78.1 °F - 30.9 °F 18% 29.56 in 10.0 mi SSW 26.5 mph 32.2 mph N/A   Clear
5:53 PM 75.9 °F - 32.0 °F 20% 29.57 in 10.0 mi SSW 20.7 mph 28.8 mph N/A   Clear
6:53 PM 69.1 °F - 30.9 °F 24% 29.57 in 10.0 mi SSW 11.5 mph - N/A   Clear
7:53 PM 66.9 °F - 27.0 °F 22% 29.58 in 10.0 mi SSW 11.5 mph - N/A   Clear
8:53 PM 66.0 °F - 26.1 °F 22% 29.58 in 10.0 mi SW 10.4 mph - N/A   Clear
9:53 PM 60.1 °F - 28.9 °F 31% 29.60 in 10.0 mi SW 5.8 mph - N/A   Clear
10:53 PM 57.9 °F - 30.0 °F 35% 29.61 in 10.0 mi WSW 4.6 mph - N/A   Clear
11:53 PM 57.9 °F - 28.9 °F 33% 29.61 in 10.0 mi SW 8.1 mph - N/A   Clear